INMARSAT GX5

Last updated on Mon Oct 20 2025 00:02:50 GMT+0000 (Coordinated Universal Time)

1 44801U 19080B 25292.26948390 .00000000 00000+0 00000+0 0 9994 2 44801 0.0251 28.9367 0002313 187.6720 279.3770 1.00271363 4374
UTC large
Height (km)
Speed (km/s)
/
Latitude / Longitude
Inclination (degrees)
Orbital Period (minutes)
Azimuth
Elevation
Range (km)
Doppler Factor

Next 0 passes for location: London (51.5072 / 0.1276)

Sorry there are no passes over London.